Flag for Poland Weather past 2 weeks in Wroclaw, Poland

Now
37 °F

Fog.


Feels Like: 35 °F
Forecast: 49 / 57 °F
Wind: 3 mph from Southeast

Location: Wroclaw Ii

Current Time: Sep 24, 2014 at 6:30:53 AM

Latest Report: Sep 24, 2014 at 6:00 AM


Visibility: N/A

Pressure: 30.07 "Hg

Humidity: 87%

Dew point: 34 °F

Location of WroclawLocation

Historic Weather in Wroclaw — Graph

°F

Wroclaw temperature yesterday

Maximum temperature yesterday: 55 °F (at 12:30 PM)
Minimum temperature yesterday: 45 °F (at 9:30 PM)
Average temperature yesterday: 52 °F

Past Weeks' High & Low Weather Summary

 TemperatureHumidityPressure
High77 °F (Sep 15, 3:30 PM)94% (Sep 9, 10:00 AM)30.15 "Hg (Sep 9, 10:00 AM)
Low37 °F (Sep 24, 5:00 AM)47% (Sep 18, 2:30 PM)29.77 "Hg (Sep 21, 11:30 PM)
Average62 °F80%30.00 "Hg
* Reported Sep 9 5:00 AM — Sep 24 5:30 AM, Wroclaw, Weather by CustomWeather, © 2014

Note: Actual official high and low records may vary slightly from our data, if they occured in-between our weather recording intervals... More about our weather records

Advertising

Wroclaw weather history for previous 24 hours

 ConditionsComfort  
Time TempWeatherWind HumidityBarometerVisibility
5:30 AM
Sep 24
37 °FClear.1 mph87%30.07 "Hg10 mi
5:00 AM37 °FFog.2 mph87%30.07 "HgN/A
4:30 AM39 °FClear.2 mph87%30.09 "Hg10 mi
4:00 AM39 °FClear.1 mph93%30.09 "Hg10 mi
3:30 AM41 °FClear.2 mph87%30.09 "Hg10 mi
3:00 AM39 °FClear.1 mph93%30.09 "Hg10 mi
2:30 AM39 °FClear.1 mph93%30.09 "Hg10 mi
2:00 AM41 °FClear.5 mph87%30.09 "Hg10 mi
1:30 AM41 °FClear.2 mph93%30.09 "Hg10 mi
1:00 AM41 °FClear.2 mph93%30.09 "Hg10 mi
12:30 AM41 °FClear.2 mph87%30.09 "Hg10 mi
12:00 AM43 °FClear.3 mph87%30.09 "Hg10 mi
11:30 PM
Sep 23
45 °FPassing clouds.3 mph81%30.09 "HgN/A
11:00 PM45 °FClear.5 mph76%30.09 "Hg10 mi
10:30 PM46 °FClear.6 mph76%30.09 "Hg10 mi
10:00 PM46 °FClear.5 mph76%30.09 "Hg10 mi
9:30 PM45 °FClear.5 mph87%30.09 "Hg10 mi
9:00 PM46 °FClear.3 mph82%30.09 "Hg10 mi
8:30 PM48 °FClear.7 mph71%30.09 "Hg10 mi
8:00 PM50 °FClear.8 mph67%30.07 "Hg10 mi
7:30 PM52 °FSunny.8 mph67%30.07 "Hg10 mi
7:00 PM52 °FSunny.9 mph62%30.07 "Hg10 mi
6:30 PM54 °FScattered clouds.12 mph58%30.04 "HgN/A
6:00 PM55 °FPartly sunny.13 mph55%30.04 "HgN/A
5:30 PM55 °FSunny.13 mph59%30.04 "Hg10 mi
5:00 PM55 °FSunny.17 mph55%30.04 "Hg10 mi
4:30 PM55 °FPassing clouds.16 mph59%30.04 "HgN/A
4:00 PM55 °FPassing clouds.18 mph63%30.04 "HgN/A
3:30 PM55 °FScattered clouds.20 mph59%30.04 "HgN/A
3:00 PM55 °FScattered clouds.20 mph63%30.04 "HgN/A
2:00 PM55 °FPassing clouds.17 mph67%30.04 "HgN/A
1:30 PM55 °FScattered clouds.20 mph63%30.01 "HgN/A
1:00 PM55 °FPassing clouds.20 mph67%30.01 "HgN/A
12:30 PM55 °FScattered clouds.20 mph77%30.01 "HgN/A
12:00 PM54 °FScattered clouds.17 mph77%30.01 "HgN/A
11:30 AM54 °FBroken clouds.17 mph88%29.98 "HgN/A
11:00 AM52 °FBroken clouds.14 mph88%29.98 "HgN/A
10:30 AM52 °FLight rain. Fog.18 mph88%29.98 "Hg2 mi
10:00 AM52 °FLight rain. Fog.18 mph88%29.95 "Hg3 mi
9:30 AM52 °FLight rain. Fog.17 mph88%29.95 "Hg2 mi
9:00 AM52 °FLight rain. Partly sunny.17 mph88%29.92 "Hg6 mi
8:30 AM52 °FLight rain. Partly sunny.17 mph88%29.92 "Hg5 mi
8:00 AM52 °FLight rain. Partly sunny.16 mph88%29.92 "Hg4 mi
7:30 AM52 °FLight rain. Fog.16 mph88%29.89 "Hg3 mi
7:00 AM52 °FLight rain. Fog.16 mph88%29.89 "Hg3 mi
6:30 AM52 °FLight rain. Passing clouds.16 mph88%29.89 "HgN/A
6:00 AM52 °FPartly cloudy.15 mph88%29.86 "HgN/A
Weather by CustomWeather, © 2014

See weather overviewHow to use our weather pages